Date,TemperatureHighF,TemperatureAvgF,TemperatureLowF,DewpointHighF,DewpointAvgF,DewpointLowF,HumidityHigh,HumidityAvg,HumidityLow,PressureMaxIn,PressureMinIn,WindSpeedMaxMPH,WindSpeedAvgMPH,GustSpeedMaxMPH,PrecipitationSumIn
2013-10-17,66,55,48,36,27,23,51,35,22,29.99,29.97,0,0,2,0.00
2013-10-18,71,59,51,28,21,13,36,23,15,30.04,29.98,2,0,5,0.00
2013-10-19,73,62,54,34,16,3,36,18,12,30.06,29.98,3,0,4,0.00
2013-10-20,71,59,48,31,20,10,41,24,13,29.98,29.88,0,0,5,0.00
2013-10-21,74,62,52,32,17,3,34,18,10,29.98,29.92,3,0,9,0.00
2013-10-22,74,62,52,37,21,15,40,21,13,29.99,29.89,2,0,8,0.00
2013-10-23,72,60,51,42,24,16,44,26,16,29.91,29.84,4,0,8,0.00
2013-10-24,69,61,53,44,27,16,50,28,19,30.00,29.86,1,0,4,0.00
2013-10-25,73,64,58,32,23,16,27,21,16,30.07,30.00,4,0,5,0.00
2013-10-26,75,65,58,32,26,19,32,23,17,30.08,29.97,6,0,8,0.00
2013-10-27,69,59,44,43,28,22,89,32,17,29.98,29.71,1,0,7,0.00
2013-10-28,48,42,37,43,40,35,95,90,68,29.94,29.71,3,0,9,0.00
2013-10-29,44,39,34,39,36,31,96,88,78,30.05,29.94,0,0,6,0.00
2013-10-30,55,43,31,39,34,29,97,73,44,30.14,30.04,1,0,4,0.00
2013-10-31,62,50,38,32,26,18,65,41,23,30.18,30.09,1,0,4,0.00
2013-11-1,67,55,46,31,26,20,48,33,22,30.16,30.03,1,0,5,0.00
2013-11-2,66,54,44,33,22,10,55,30,18,30.07,29.90,2,0,6,0.00
2013-11-3,57,48,38,38,31,24,78,53,34,29.90,29.81,0,0,3,0.00
2013-11-4,48,42,35,43,38,27,95,86,65,29.99,29.78,0,0,3,0.00
2013-11-5,56,46,35,33,19,6,72,38,17,30.25,29.99,1,0,3,0.00
2013-11-6,65,52,40,21,11,3,31,21,9,30.32,30.22,0,0,5,0.00
2013-11-7,68,59,48,26,15,5,31,19,9,30.22,30.04,3,0,7,0.00
2013-11-8,67,56,46,23,14,4,30,20,11,30.05,29.96,0,0,2,0.00
2013-11-9,67,55,45,21,13,1,29,20,13,30.12,30.01,2,0,5,0.00
2013-11-10,66,57,47,24,16,5,32,20,13,30.12,30.06,2,0,4,0.00
2013-11-11,71,58,46,31,21,13,35,24,17,30.16,30.06,1,0,5,0.00
2013-11-12,71,62,54,35,23,11,33,23,17,30.20,30.11,3,0,3,0.00
2013-11-13,73,63,55,32,24,18,35,23,16,30.11,29.94,2,0,7,0.00
2013-11-14,71,61,53,30,23,18,33,24,16,29.98,29.74,5,0,7,0.00
2013-11-15,57,46,41,44,37,25,94,74,30,29.75,29.63,2,0,4,0.00
2013-11-16,46,42,39,43,41,37,97,94,80,29.97,29.75,0,0,5,0.00
2013-11-17,54,43,35,46,40,34,98,88,64,30.14,29.97,0,0,6,0.00
2013-11-18,56,45,38,46,40,33,96,81,67,30.20,30.09,2,0,6,0.00
2013-11-19,44,42,40,43,41,40,98,97,95,30.09,29.99,0,0,5,0.00
2013-11-20,47,43,40,45,42,40,98,97,91,30.00,29.93,0,0,1,0.00
2013-11-21,46,43,38,45,42,37,98,98,97,29.93,29.87,0,0,7,0.00
2013-11-22,42,37,34,42,36,33,98,97,95,30.02,29.87,0,0,1,0.00
2013-11-23,41,37,31,39,35,31,98,94,87,30.17,30.01,0,0,0,0.00
2013-11-24,46,38,32,38,34,30,97,86,70,30.28,30.17,1,0,5,0.00
2013-11-25,56,45,34,37,32,30,86,63,42,30.35,30.27,3,0,5,0.00
2013-11-26,60,51,42,37,29,23,66,45,29,30.29,30.11,6,0,7,0.00
2013-11-27,56,47,38,33,29,24,73,52,33,30.10,29.92,1,0,8,0.00
2013-11-28,53,44,36,31,29,25,75,55,42,30.12,29.95,6,0,7,0.00
2013-11-29,53,44,39,45,37,29,94,76,51,30.25,30.12,0,0,5,0.00
2013-11-30,59,49,42,44,38,33,89,69,39,30.26,30.16,4,0,8,0.00
2013-12-1,62,51,45,35,29,19,60,44,24,30.28,30.18,3,0,6,0.00
2013-12-2,63,52,43,29,22,15,51,32,22,30.20,29.92,1,0,6,0.00
2013-12-3,54,46,40,43,32,20,97,63,33,29.92,29.71,4,0,9,0.00
2013-12-4,41,35,28,40,31,24,97,86,53,30.00,29.73,0,0,9,0.00
2013-12-5,39,32,27,31,28,22,95,84,57,30.16,29.99,5,0,8,0.00
2013-12-6,37,31,25,31,28,22,96,86,72,30.26,30.16,0,0,6,0.00
2013-12-7,34,31,28,33,30,27,96,94,84,30.19,30.08,0,0,9,0.00
2013-12-8,34,30,27,31,28,24,96,91,86,30.26,30.15,0,0,3,0.00
2013-12-9,39,30,22,25,20,11,90,69,36,30.43,30.25,4,0,8,0.00
2013-12-10,52,40,30,26,17,9,65,42,22,30.41,30.21,4,0,6,0.00
2013-12-11,55,46,38,25,13,3,52,27,17,30.24,30.19,4,0,7,0.00
2013-12-12,54,45,36,24,20,13,62,39,25,30.25,30.16,2,0,7,0.00
2013-12-13,52,43,37,30,23,17,57,45,37,30.30,30.16,3,0,5,0.00
2013-12-14,56,44,37,22,18,13,50,35,23,30.39,30.28,4,0,5,0.00
2013-12-15,68,54,40,35,20,11,42,27,15,30.36,30.20,3,0,5,0.00
2013-12-16,73,62,52,36,25,20,42,25,16,30.22,30.12,5,0,6,0.00
2013-12-17,72,63,57,34,24,18,40,23,16,30.14,29.99,4,0,6,0.00
2013-12-18,64,53,35,33,24,19,90,34,22,29.98,29.77,2,0,9,0.00
2013-12-19,38,35,32,36,34,31,97,95,84,29.82,29.69,2,0,7,0.00
2013-12-20,46,36,30,37,31,28,94,82,61,30.01,29.81,4,0,7,0.00
2013-12-21,46,38,30,41,33,27,96,83,54,30.17,29.96,5,0,6,0.00
2013-12-22,54,45,37,32,29,25,68,54,38,30.34,30.16,4,0,8,0.00
2013-12-23,59,47,38,34,29,21,68,51,31,30.40,30.30,4,0,6,0.00
2013-12-24,53,50,46,31,23,18,45,35,27,30.27,30.17,3,0,5,0.00
2013-12-25,62,51,40,25,16,7,48,26,14,30.28,30.19,4,0,7,0.00
2013-12-26,62,50,40,18,10,1,36,20,11,30.25,30.16,5,0,6,0.00
2013-12-27,65,54,47,19,11,2,27,19,11,30.23,30.10,5,0,6,0.00
2013-12-28,59,52,43,23,13,2,37,22,12,30.09,29.95,9,0,20,0.00
2013-12-29,56,48,38,15,8,-21,32,20,4,30.22,30.01,4,0,14,0.00
2013-12-30,62,51,39,19,6,0,29,16,9,30.34,30.21,4,0,6,0.00
2013-12-31,61,51,42,17,12,5,34,23,11,30.23,30.13,1,0,6,0.00
2014-1-1,65,58,42,22,17,13,33,21,16,30.19,30.12,3,0,5,0.00
2014-1-2,64,63,62,27,25,23,25,24,21,30.12,30.04,2,0,8,0.00